Вернуться в каталог

DELTA 1 DEB

YO

АктивенLEO
NORAD 312·DEBRIS·🇺🇸 United States

Запущен Jun 19, 1962 с Cape Canaveral Space Force Station

Loading…

Ближайшие Пролёты (ближайшие 24 часа)

TLE

СвежийSource: Space-Track

Эпоха: Sep 14, 2026, 10:57 UTC

1 00312U 62025C   26257.45689260  .00000865  00000-0  16381-3 0  9994
2 00312  58.2450  57.3599 0195164  66.2629 295.8741 14.62040251371975

Отслеживайте DELTA 1 DEB в реальном времени с AllMySat

Download on the App Store